www.pogodaiklimat.ru
Время
и дата
10:56 26.05
11:20 26.05
11:56 26.05
12:56 26.05
13:56 26.05
14:56 26.05
15:28 26.05
15:56 26.05
16:56 26.05
17:56 26.05
18:56 26.05
19:56 26.05
20:56 26.05
21:56 26.05
22:56 26.05
23:56 26.05
00:56 27.05
01:56 27.05
02:56 27.05
03:56 27.05
04:56 27.05
05:56 27.05
06:56 27.05
07:56 27.05
08:56 27.05
09:56 27.05
10:56 27.05
11:56 27.05
12:56 27.05
13:56 27.05
14:56 27.05
15:56 27.05
16:56 27.05
17:56 27.05
18:56 27.05
19:56 27.05
20:56 27.05
21:56 27.05
22:56 27.05
23:56 27.05
00:56 28.05
01:56 28.05
02:56 28.05
03:56 28.05
04:56 28.05
05:56 28.05
06:56 28.05
07:56 28.05
Ветер
(напр.,м/с)
Видим. Явления Облачность Т
(С)
Тd
(С)
f
(%)
Тe
(С)
Тes
(С)
Комфортность P
(гПа)
Po
(гПа)
Тmin
(С)
Tmax
(С)
R
(мм)
R24
(мм)
S
(см)
штиль 0 16 км 5/5 900 м +18.3 +5.6 43 +18 +28 1020.0 1012.3
ЮЗ 5 16 км 2/2 900 м +19.4 +6.1 42 +20 +27 1012.3
ЮЗ 4 16 км 2/2 900 м +19.4 +6.1 42 +20 +29 1019.7 1012.3
16 км ясно +21.1 +5.0 35 +22 +47 комфорт 1019.3 1011.6
нст 2 16 км 2/2 900 м +23.9 +5.0 29 +24 +38 комфорт 1019.1 1011.6
СВ 3 16 км ясно +24.4 +6.7 32 +24 +38 комфорт 1018.6 1010.9
СЗ 4 16 км ясно +24.4 +7.2 33 +25 +33 комфорт 1010.9
С 2 16 км ясно +25.0 +7.2 32 +25 +38 комфорт 1018.4 1010.6 +16.7 +25.6
СЗ 3 16 км ясно +24.4 +7.8 35 +25 +32 комфорт 1018.2 1010.6
С 5 16 км ясно +23.3 +8.9 40 +25 +27 комфорт 1018.1 1010.6
З 4 16 км ясно +19.4 +8.3 49 +20 +22 1018.7 1010.9
З 4 16 км ясно +16.7 +7.8 56 +16 +16 1019.2 1011.6
З 3 16 км ясно +15.0 +7.2 60 +14 +14 1019.8 1012.3
З 2 16 км ясно +14.4 +6.7 60 +14 +14 1020.3 1012.6 +14.4 +25.6
З 2 16 км ясно +13.3 +6.7 64 +13 +13 1020.6 1012.9
З 3 16 км ясно +12.2 +6.1 66 +11 +11 1020.4 1012.6
З 3 16 км ясно +12.8 +6.1 64 +12 +12 1020.5 1012.9
З 3 16 км ясно +12.2 +6.7 69 +11 +11 1020.5 1012.9
З 2 16 км ясно +11.7 +6.7 71 +11 +11 1020.4 1012.9
штиль 0 16 км ясно +11.1 +6.1 71 +11 +11 1020.6 1012.9 +11.1 +13.9
Ю 2 16 км ясно +9.4 +5.6 77 +8 +8 1020.9 1013.3
штиль 0 16 км ясно +11.7 +7.2 74 +11 +11 1021.1 1013.6
СЗ 2 16 км ясно +13.9 +7.2 64 +13 +15 1021.4 1013.6
СЗ 3 16 км ясно +15.6 +7.8 60 +15 +18 1021.6 1013.9
штиль 0 16 км ясно +16.1 +7.8 58 +16 +25 1021.4 1013.6
штиль 0 16 км 2/2 600 м +18.3 +8.9 54 +19 +30 1021.1 1013.6 +9.4 +18.3
штиль 0 16 км ясно +18.9 +8.3 50 +19 +39 опасность
простуды
1020.5 1012.9
штиль 0 16 км ясно +21.7 +8.3 42 +23 +46 комфорт 1019.8 1012.3
нст 3 16 км ясно +22.8 +7.8 38 +24 +39 комфорт 1019.2 1011.6
С 3 16 км ясно +23.9 +8.3 37 +24 +40 комфорт 1018.5 1010.9
нст 3 16 км ясно +25.0 +8.3 35 +25 +39 комфорт 1017.9 1010.2
СЗ 4 16 км ясно +25.6 +8.9 35 +26 +34 жарко 1017.2 1009.6 +18.3 +26.1
СВ 3 16 км ясно +25.6 +8.9 35 +26 +33 жарко 1016.8 1009.2
С 5 16 км ясно +23.9 +11.1 45 +25 +28 комфорт 1016.7 1009.2
СЗ 4 16 км ясно +21.1 +10.6 51 +23 +24 комфорт 1016.9 1009.2
З 3 16 км ясно +18.3 +8.3 52 +19 +19 1017.1 1009.6
З 2 16 км ясно +16.7 +7.8 56 +17 +17 1017.7 1009.9
З 3 16 км ясно +15.6 +7.2 57 +15 +15 1017.8 1010.2 +15.6 +26.1
З 4 16 км ясно +14.4 +6.7 60 +13 +13 1017.8 1010.2
З 3 16 км ясно +13.9 +6.7 62 +13 +13 1017.9 1010.2
З 3 16 км 2/2 1500 м +13.3 +6.7 64 +12 +12 1018.0 1010.6
З 2 16 км 10/10 1410 м +12.8 +7.8 72 +12 +12 1018.4 1010.9
Ю 2 16 км 8/8 1380 м +12.2 +7.8 74 +11 +11 1018.7 1011.3
ЮВ 3 16 км 10/2 1470 m
[Ac]
+11.7 +7.8 77 +10 +10 1018.8 1011.3 +11.7 +15.6
ЮВ 3 16 км 8/8 1500 м +11.7 +7.8 77 +10 +10 1019.1 1011.6
ЮВ 2 16 км ясно +11.7 +7.8 77 +11 +11 1019.9 1012.3
Ю 3 16 км 2/2 1140 м +13.9 +8.3 69 +13 +14 1019.9 1012.3
нст 3 16 км 5/5 570 м +14.4 +8.3 67 +14 +15 1020.5 1012.9
Местоположение метеостанции McNary Field: широта 44.9050 долгота -123.0011 высота над уровнем моря 63 м.
В архиве по умолчанию представлена погода в Салеме за последние 1-2 суток. Обновление информации о фактической погоде в базе происходит ежечасно! Архивные данные за месяц целиком и за предыдущие месяцы Вы можете получить, выбрав интересующий диапазон дат из раскрывающегося списка и нажав кнопку "Ввод!".
Внимание! Архив погоды МЕТАР в базе сайта по станциям, не включенным в климатический монитор, хранится не более 60 дней. Нет смысла пытаться выбрать более раннюю дату.
*Определитесь, кто Вы:
Внимание! Время в таблицах - местное (без учета летнего времени). Для получения всемирного времени необходимо вычесть поправку, которая равна -8 ч.
Смотрите также архив погоды в соседних городах и на ближайших метеорологических станциях:
Партнеры нашего сайта:      
Пояснения к столбцам:
  • Ветер - указаны скорость ветра в м/с - средняя за 10 мин, порывы в срок и между сроками (в фигурных скобках) и направление, откуда дует ветер: С - северный,
  • СВ - северо-восточный, В - восточный, ЮВ - юго-восточный, Ю - южный, ЮЗ - юго-западный, З - западный, СЗ - северо-западный.
  • Видимость - горизонтальная дальность видимости в метрах или километрах. При видимости от 1 до 10 км при отсутствии осадков обычно наблюдается дымка, при ухудшении видимости до 1 км и менее - туман. В сухую погоду видимость может ухудшаться дымом, пылью или мглою.
  • Явления - указаны атмосферные явления, наблюдавшиеся в срок или в последний час перед сроком; фигурными скобками обозначены явления, наблюдавшиеся между сроками (за 1-3 часа до срока); квадратными скобками обозначены град или гололедные отложения с указанием их диаметра в мм.
  • Облачность - указаны через наклонную черту общая и нижняя облачность в баллах и высота нижней границы облаков в метрах; квадратными скобками обозначены формы облаков: Ci - перистые, Cs - перисто-слоистые, Cc - перисто-кучевые, Ac - высококучевые, As - высокослоистые, Sc - слоисто-кучевые, Ns - слоисто-дождевые, Cu - кучевые, Cb - кучево-дождевые. Подробнее классификацию облаков см. в Атласе облаков (PDF).
  • T - Температура воздуха - температура, измеренная на высоте 2 м над землей.
  • Td - Температура точки росы - температура, при понижении до которой содержащийся в воздухе водяной пар достигнет насыщения.
  • f - Относительная влажность воздуха - влажноcть воздуха, измеренная на высоте 2 м над землей.
  • Te - Эффективная температура - температура, которую ощущает одетый по сезону человек в тени. Характеристика душности погоды. При расчете учитывается влияние влажности воздуха и скорости ветра на теплоощущения человека.
  • Tes - Эффективная температура на солнце - температура, которую ощущает человек, с поправкой на солнечный нагрев. Характеристика знойности погоды. Зависит от высоты солнца над горизонтом, облачности и скорости ветра. Ночью, в пасмурную погоду, а также при ветре 12 м/с и более поправка равна нулю.
  • P - Атмосферное давление - приведенное к уровню моря атмосферное давление.
  • Po - Атмосферное давление - измеренное на уровне метеостанции атмосферное давление.
  • Tmin - Минимальная температура - минимум температуры воздуха на высоте 2 м над землей.
  • Tmax - Максимальная температура - максимум температуры воздуха на высоте 2 м над землей.
  • R - Количество осадков - Количество выпавших осадков за период времени, мм. При наведении курсора мыши на число - период времени, за который выпало указанное количество осадков.
  • R24 - Количество осадков - Количество выпавших осадков за 24 часа, мм.
  • S - Снежный покров - Высота снежного покрова, см. При наведении курсора мыши на число - состояние снежного покрова и степень покрытия местности в баллах.